Showing default

GSAT 7A, 43864

Orbit data source: Space-Track

GSAT 7A, 43864 is an Indian payload satellite in GEO that was launched on Wed, 19 Dec 2018 UTC via a GSLV MK II launch vehicle from the Sirharikota (SRI). Payload-class satellites include a variety of spacecraft equipped with specific instruments for various scientific and technological missions. These include communications satellites like Starlink; space stations such as the ISS; scientific satellites like the Hubble; Earth observation satellites from companies like Planet Labs, Umbra, and HawkEye 360; GPS; miniature CubeSats for education and research; and military/defense satellites.

Not visible in the next 10 days
Identifier
43864, 2018-105A
Orbit
GEO
Country
Flag of ININ / IND
Related business
Manufacturer
ISRO
Mission
Operational Defense Communications
Bus & Motor
I2K, ISRO LAM
Mass
2,250 kg wet, ~1,000 kg dry
Launch date (UTC)
2018-12-19 (7 years ago)
Launch vehicle
GSLV MK II
Launch site
Sirharikota (SRI)
Object type
Payload
Rocket body
Debris
Shape & HBR
Box + 2 Pan, 4.8 m
Radar Cross Section
8.526 m², Small (<0.1 m²)

Expand to show TLE details & history
Last TLE update: 10 hours ago

TLE from 10 hours ago
0 GSAT 7A
1 43864U 18105A   26071.94419669  .00000027  00000-0  00000+0 0  9992
2 43864   0.0796 279.9052 0001841  71.6931 221.6284  1.00273462 26484
Epoch: 2026-03-12T22:39Z
TLE epoch observation values (Epoch: 2026-03-12T22:39:38.594Z)
Latitude
-0.05275°
Longitude
62.73373°
Altitude
35,791.442 km
Speed
3.074 km/s
True Right ascension
14h 12m 55s
True Declination
0° 03' 10"
Sunlit
Object was in daylight at epoch
Visualization orbit readout
Latitude
Unknown
Longitude
Unknown
Altitude
Unknown
Speed
Unknown
Apparent Right ascension
Unknown
Apparent Declination
Unknown
Sunlit
N/A
Visualization observer readout
Local Sidereal Time
12:44:46
Azimuth
Unknown
Elevation
Unknown
Doppler factor
Unknown
Orbital elements
Apogee altitude
35,794.958 km
Perigee altitude
35,779.433 km
Semi-major axis
42,165.332 km
Eccentricity
0.00018
Inclination
0.0796°
RAAN
279.9052°
Arg. of periapsis
71.6931°
True anomaly
221.61439°
Mean anomaly
221.6284°
Eccentric anomaly
221.62139°
Mean motion
0.25067 °/min
Orbital period
1,436.13 mins
BSTAR
0
Loading maneuver chart data...
Computing Atmospheric mass density...
Loading historical data...
Loading historical data...
Loading historical data...
Loading historical data...
Loading historical data...
Loading historical data...
Loading historical data...
Other satellites on launch #105 in the year 2018 (2018-12-19 UTC)

Documentation

Showing up to 5 results
|